Location: Aressy
(43.2833°N, 0.3167°W)
Time: 21:35:01
(UTC+00:00)

Iridium 4 Rocket - Pass Details

Date: 28 January 2021
Orbit: 583 x 906 km, 86.9° (Epoch: 02 March)

Event Time Altitude Azimuth Distance (km) Brightness Sun altitude
Rises 17:53:46 0° 3° (N) 3,375 6.6 -8.6°
Reaches altitude 10° 17:56:22 10° 9° (N) 2,389 5.8 -9.1°
Maximum altitude 18:01:28 45° 82° (E) 1,025 3.7 -10.0°
Drops below altitude 10° 18:06:06 10° 155° (SSE) 2,168 5.7 -10.8°
Sets 18:08:22 0° 162° (SSE) 3,031 6.6 -11.2°
